Temp
63 63 63 63 63 63 63 63 63 63 63 63 63 63 63 63 62 86 99 91 90 74 78 104 103 105 106 104 105 106 82 80 83 75 85 90 87 91 94 87 88 89 88 89 92
63 63 63 63 63 62 62 62 62 62 63 63 63 63 63 63 91 103 81 77 77 76 101 102 101 103 101 100 104 97 88 87 94 92 88 90 88 87 85 82 81 81 88 90 91
63 63 63 63 63 62 62 62 62 62 63 63 62 62 62 68 96 101 77 77 77 82 106 108 106 104 98 101 99 97 88 93 93 94 95 89 87 90 83 78 83 81 84 87 87
62 62 62 62 62 62 61 62 62 62 62 62 62 62 63 88 88 100 78 78 78 99 107 105 104 99 97 94 98 90 94 94 93 94 92 88 91 82 86 83 87 86 87 87 86
61 62 62 61 61 61 61 61 61 61 61 61 61 62 79 94 99 98 79 82 101 105 104 103 102 98 94 96 97 92 91 93 93 93 91 90 85 82 79 84 86 86 86 86 85
61 61 61 61 61 61 60 60 60 60 60 61 62 61 88 91 108 107 108 105 108 107 107 108 104 105 98 95 94 94 93 92 93 91 90 86 83 83 80 84 83 85 85 86 85
60 60 60 61 61 61 60 60 59 60 61 62 63 84 97 96 111 112 109 109 110 109 106 109 109 103 100 93 98 94 87 89 90 91 87 89 80 78 82 84 84 84 84 85 86
60 60 60 60 61 61 61 60 59 62 64 64 65 91 96 108 113 108 112 108 110 110 109 111 111 104 100 101 94 90 82 60 88 89 88 87 72 78 83 84 82 83 84 84 85
60 60 60 60 61 61 60 59 61 67 66 67 86 95 95 92 103 108 112 107 108 108 108 107 108 100 97 80 63 84 79 83 83 90 87 86 78 81 86 86 84 84 83 85 84
60 59 59 60 60 60 59 58 63 67 75 93 99 93 100 99 104 106 111 110 104 104 101 101 101 92 91 80 72 79 83 86 82 87 85 85 81 83 84 85 84 86 85 86 85
60 59 59 59 60 59 73 92 93 90 99 94 97 94 101 106 106 104 108 105 104 101 93 99 91 82 90 93 92 89 86 83 86 87 84 84 83 84 85 84 83 83 86 86 86
60 59 59 59 59 59 78 94 90 93 85 98 97 97 101 104 97 103 109 97 96 90 96 93 88 94 96 94 91 88 85 82 85 86 84 83 83 86 86 84 85 85 86 87 87
59 59 59 59 59 74 97 93 102 98 86 93 99 98 99 103 97 99 104 100 94 91 92 87 91 95 92 90 88 88 84 83 82 85 86 84 80 82 85 87 88 88 88 90 86
58 58 58 57 74 100 97 101 104 98 82 85 91 97 100 102 95 108 107 101 96 91 92 92 96 91 90 88 90 70 90 86 83 80 76 85 73 79 81 81 84 87 89 89 89
58 58 58 54 90 95 97 104 103 94 68 90 93 106 102 96 99 98 108 102 91 92 92 88 90 89 88 88 91 85 91 87 85 82 80 79 77 77 83 79 82 86 88 90 92
58 58 57 78 94 100 104 103 96 77 66 84 93 91 92 95 95 100 99 103 102 94 95 92 96 94 91 91 92 91 87 85 85 76 65 77 76 77 80 82 86 89 90 90 92
58 58 62 89 93 103 102 94 78 72 88 82 86 91 91 88 91 93 90 88 86 80 82 89 90 92 94 88 91 89 83 65 67 57 68 79 77 79 86 88 88 89 90 91 92
56 55 71 94 101 101 95 85 69 81 83 88 88 89 85 90 88 89 88 85 92 90 84 79 72 86 94 91 86 85 82 72 61 66 73 72 73 80 89 91 91 92 94 94 93
53 88 94 102 99 97 87 76 79 82 85 83 87 83 84 88 89 88 87 87 91 93 81 80 80 93 93 93 92 82 78 87 75 79 70 74 82 86 89 88 89 89 91 91 92
85 93 97 99 98 92 84 69 81 86 86 86 81 85 81 85 83 86 85 91 90 95 96 86 77 90 92 94 94 88 92 77 76 63 62 72 73 73 82 85 87 87 88 91 91
83 87 94 101 97 88 79 83 84 89 87 83 83 82 85 85 86 85 86 91 94 93 95 91 83 81 88 85 84 84 80 71 80 77 67 63 73 86 85 87 86 88 91 91 92
88 81 97 99 83 89 85 83 66 86 89 86 86 85 84 86 84 85 84 89 95 94 86 92 83 77 81 86 94 90 84 83 74 70 75 74 73 88 90 90 89 89 91 94 94
84 90 97 94 78 82 83 83 84 84 85 85 84 87 88 84 79 86 87 91 91 91 87 90 80 72 76 84 87 77 79 78 83 79 70 68 71 86 86 88 89 89 92 92 92
86 79 87 89 89 81 79 81 80 86 85 86 86 88 85 83 88 83 86 89 90 91 72 81 82 77 72 75 80 73 76 83 82 73 75 76 77 84 64 82 88 88 90 92 92
86 82 84 79 83 82 81 80 80 79 87 88 85 86 84 80 84 83 88 89 90 73 86 86 76 82 85 87 86 83 83 85 81 82 74 79 80 86 90 89 90 90 90 90 90
83 83 86 84 81 81 69 79 79 83 83 83 82 86 86 82 84 82 86 87 86 88 87 86 78 82 80 86 85 82 85 86 85 84 83 82 81 85 83 93 90 89 89 89 89
91 89 85 71 79 80 81 81 81 82 85 88 86 84 85 86 89 92 92 90 88 86 84 82 81 78 73 79 79 75 81 83 84 86 84 77 82 90 89 88 89 90 90 89 90
MSLP
1020.22 1019.81 1019.43 1018.96 1018.76 1018.21 1017.84 1017.54 1017.29 1016.88 1016.33 1015.82 1015.59 1015.19 1014.97 1014.56 1013.79 1013.19 1010.87 1011.01 1010.69 1011.04 1011.19 1009.94 1009.53 1008.58 1007.94 1006.68 1005.97 1005.12 1005.50 1005.40 1006.46 1007.85 1008.03 1009.43 1010.33 1011.72 1012.29 1012.76 1013.59 1013.78 1014.15 1015.23 1015.80
1020.04 1019.61 1019.31 1019.03 1018.61 1018.12 1017.54 1017.27 1017.05 1016.79 1016.22 1015.70 1015.40 1015.16 1014.96 1014.60 1012.81 1010.60 1011.25 1010.66 1010.81 1011.08 1010.47 1009.15 1008.06 1007.75 1006.66 1006.07 1005.70 1004.78 1004.01 1005.59 1006.84 1007.48 1008.20 1009.33 1010.46 1011.99 1012.89 1013.92 1014.55 1015.15 1015.73 1016.09 1016.28
1020.06 1019.53 1019.08 1018.89 1018.51 1018.00 1017.31 1017.03 1016.71 1016.54 1016.14 1015.60 1015.24 1015.06 1014.90 1014.43 1011.78 1009.67 1010.99 1010.88 1010.96 1011.13 1009.70 1008.46 1007.89 1007.01 1005.75 1005.62 1005.68 1005.50 1005.64 1006.85 1007.82 1008.51 1008.63 1010.27 1010.98 1012.22 1013.33 1013.74 1014.43 1015.02 1015.84 1016.38 1016.81
1020.13 1019.46 1018.88 1018.55 1018.35 1017.84 1017.23 1016.68 1016.27 1016.21 1015.89 1015.50 1015.10 1014.86 1014.76 1013.46 1009.95 1010.03 1010.98 1011.02 1010.99 1010.61 1009.32 1008.04 1007.05 1005.69 1004.78 1005.56 1006.20 1006.40 1007.24 1007.91 1008.60 1009.22 1009.38 1010.40 1011.29 1012.86 1013.24 1014.69 1015.25 1015.82 1016.32 1016.68 1017.04
1020.17 1019.56 1018.88 1018.25 1018.01 1017.57 1017.05 1016.33 1015.90 1015.84 1015.57 1015.27 1014.94 1014.73 1014.18 1011.33 1008.86 1010.41 1010.83 1010.94 1010.45 1009.83 1008.55 1007.23 1005.98 1005.31 1005.36 1006.06 1006.21 1007.01 1008.06 1008.60 1009.28 1009.91 1010.56 1011.34 1012.41 1013.71 1015.11 1015.79 1016.29 1016.63 1016.83 1016.88 1017.44
1019.98 1019.45 1018.79 1018.16 1017.68 1017.28 1016.80 1016.02 1015.60 1015.44 1015.20 1014.91 1014.74 1014.74 1013.06 1009.74 1008.73 1009.62 1009.39 1009.71 1009.04 1008.74 1007.48 1006.81 1005.49 1005.68 1006.01 1006.42 1006.33 1007.61 1008.21 1008.77 1009.34 1010.15 1011.03 1011.66 1013.27 1014.17 1015.69 1016.14 1016.45 1016.45 1016.63 1016.91 1017.50
1019.71 1019.23 1018.61 1017.94 1017.39 1017.00 1016.44 1015.74 1015.32 1014.99 1014.76 1014.51 1014.46 1013.56 1010.85 1009.11 1008.47 1009.03 1009.13 1008.75 1008.51 1008.15 1006.88 1006.68 1006.07 1005.97 1006.34 1006.76 1007.38 1008.20 1009.04 1009.89 1009.64 1009.90 1010.97 1011.81 1012.67 1014.00 1015.62 1016.10 1015.88 1016.11 1016.69 1017.12 1017.54
1019.67 1019.19 1018.60 1017.90 1017.16 1016.75 1016.16 1015.49 1015.07 1014.69 1014.36 1014.16 1014.17 1012.71 1009.16 1008.84 1008.59 1008.81 1008.64 1008.49 1008.52 1008.13 1007.50 1006.88 1006.72 1006.26 1006.36 1007.39 1008.28 1007.76 1009.12 1009.94 1009.34 1009.83 1010.84 1011.11 1011.98 1014.32 1015.38 1015.44 1015.54 1015.94 1016.58 1016.99 1017.49
1019.61 1018.98 1018.54 1017.84 1017.07 1016.29 1015.68 1015.30 1014.84 1014.53 1014.20 1013.95 1013.35 1011.28 1008.60 1009.61 1008.83 1008.49 1008.20 1007.73 1008.01 1007.90 1007.70 1007.67 1006.74 1006.35 1007.25 1008.32 1010.01 1007.46 1006.63 1006.68 1007.94 1009.24 1009.77 1010.38 1010.83 1013.29 1014.42 1014.33 1014.64 1015.26 1015.92 1016.25 1017.22
1019.47 1019.00 1018.35 1017.64 1016.78 1015.75 1015.11 1014.95 1014.62 1014.46 1013.80 1012.59 1011.30 1010.17 1008.50 1007.96 1008.28 1008.34 1008.16 1007.77 1007.64 1007.47 1007.54 1007.19 1006.28 1006.98 1006.06 1007.09 1006.72 1006.42 1005.67 1005.97 1006.88 1008.34 1009.63 1009.24 1010.22 1012.26 1013.43 1013.71 1013.91 1014.22 1014.99 1015.36 1016.28
1019.44 1018.84 1018.13 1017.56 1016.67 1015.71 1014.42 1014.02 1013.87 1013.16 1010.92 1009.91 1008.81 1008.28 1007.37 1007.82 1008.70 1008.21 1008.17 1007.96 1007.65 1007.20 1006.22 1005.94 1005.61 1006.00 1005.15 1005.42 1005.73 1005.85 1005.75 1005.99 1007.23 1008.62 1008.87 1008.65 1009.28 1010.60 1012.29 1013.21 1013.55 1014.03 1014.09 1014.76 1015.24
1019.34 1018.63 1017.99 1017.35 1016.60 1015.52 1015.33 1013.06 1013.42 1013.17 1011.09 1009.45 1009.07 1008.64 1008.26 1007.97 1007.56 1007.51 1007.99 1007.80 1007.34 1006.55 1005.86 1005.56 1004.62 1005.02 1005.58 1005.87 1005.50 1005.44 1005.17 1006.16 1007.25 1008.22 1008.63 1008.28 1008.63 1009.39 1010.86 1011.93 1012.66 1013.24 1013.48 1013.68 1014.47
1019.25 1018.67 1017.96 1017.06 1016.44 1015.45 1013.73 1013.47 1012.90 1012.54 1010.91 1008.81 1008.19 1007.53 1007.48 1007.73 1006.75 1006.84 1007.55 1007.22 1006.71 1006.26 1005.69 1005.29 1005.05 1005.79 1005.75 1005.34 1005.10 1005.37 1005.61 1006.19 1006.95 1007.65 1008.28 1007.92 1007.63 1008.72 1010.15 1011.02 1011.57 1012.15 1012.65 1013.11 1013.76
1019.22 1018.69 1018.11 1016.95 1016.60 1013.81 1012.75 1012.87 1012.39 1012.57 1009.81 1008.38 1007.83 1007.15 1007.31 1006.97 1006.31 1006.00 1006.94 1006.76 1006.41 1005.78 1005.74 1005.31 1005.36 1005.79 1005.56 1005.07 1005.50 1007.88 1006.37 1006.65 1007.01 1007.25 1006.56 1007.59 1006.48 1007.73 1009.30 1010.29 1010.93 1011.38 1011.81 1012.31 1012.87
1019.24 1018.74 1018.03 1018.21 1016.02 1013.33 1013.10 1012.65 1012.57 1012.55 1008.46 1007.39 1006.97 1007.01 1006.61 1006.66 1005.80 1006.19 1006.63 1006.45 1006.22 1005.82 1005.93 1005.24 1005.35 1005.45 1005.17 1005.50 1005.95 1006.21 1006.56 1006.66 1006.96 1006.88 1006.59 1006.89 1006.35 1007.12 1008.18 1008.92 1009.72 1010.43 1010.97 1011.55 1012.09
1019.16 1018.72 1018.17 1016.72 1014.95 1013.19 1012.87 1012.62 1012.45 1010.79 1007.59 1006.87 1006.50 1006.58 1006.49 1006.40 1006.08 1006.17 1006.67 1006.93 1006.40 1005.79 1005.81 1005.62 1006.27 1006.06 1005.87 1006.35 1006.37 1006.65 1006.72 1007.37 1007.33 1007.97 1006.45 1006.59 1006.51 1005.64 1006.70 1007.49 1007.59 1008.60 1009.94 1010.87 1011.64
1018.94 1018.57 1018.46 1016.15 1013.61 1013.17 1012.89 1011.97 1010.31 1007.80 1007.22 1006.66 1006.17 1006.12 1005.89 1005.93 1005.88 1006.06 1006.46 1006.57 1006.15 1005.93 1005.49 1005.56 1005.56 1006.30 1006.50 1006.05 1006.49 1006.56 1006.31 1006.74 1007.26 1008.70 1006.23 1006.32 1006.03 1005.81 1006.54 1007.04 1007.51 1007.47 1008.56 1009.92 1010.98
1018.74 1018.48 1016.33 1014.96 1014.09 1013.42 1012.79 1011.05 1008.91 1007.31 1006.60 1006.88 1006.35 1006.02 1005.59 1005.86 1006.11 1006.11 1006.14 1005.93 1006.15 1005.57 1005.21 1005.11 1005.82 1006.56 1006.17 1005.75 1005.63 1005.80 1006.44 1006.95 1006.78 1006.20 1005.72 1007.91 1005.75 1005.45 1006.56 1007.01 1007.47 1007.76 1007.84 1008.82 1009.94
1018.49 1016.34 1014.51 1013.46 1013.94 1013.66 1012.36 1009.44 1007.62 1007.29 1007.71 1006.99 1006.47 1005.87 1005.48 1005.60 1005.43 1005.71 1005.70 1005.50 1005.22 1005.52 1005.29 1005.14 1005.09 1005.86 1006.03 1006.09 1006.26 1005.85 1006.34 1006.77 1007.17 1006.36 1006.43 1006.16 1005.05 1005.47 1006.07 1006.47 1007.21 1007.71 1008.05 1008.40 1009.28
1017.48 1014.82 1012.97 1013.52 1013.88 1013.22 1011.34 1009.40 1008.52 1008.80 1008.46 1007.64 1006.09 1005.75 1005.16 1005.41 1005.71 1005.33 1005.30 1005.32 1005.04 1005.36 1005.61 1005.61 1005.47 1005.72 1005.73 1006.30 1006.27 1006.48 1006.59 1006.54 1006.75 1006.58 1006.07 1005.55 1005.09 1005.77 1005.61 1005.81 1006.70 1007.53 1008.02 1008.48 1009.42
1017.30 1013.89 1013.26 1013.27 1013.31 1012.13 1009.88 1008.89 1009.05 1009.02 1008.94 1008.13 1006.89 1006.15 1005.30 1005.10 1005.26 1005.00 1004.65 1005.03 1005.23 1005.50 1006.00 1006.13 1006.25 1006.02 1006.73 1005.89 1005.47 1006.44 1007.20 1008.20 1007.80 1007.26 1006.51 1006.35 1005.10 1005.42 1006.00 1005.95 1006.33 1007.00 1007.42 1008.29 1009.09
1015.68 1013.05 1012.84 1013.05 1012.12 1010.64 1009.42 1009.80 1010.70 1009.21 1008.95 1008.54 1008.13 1007.08 1006.22 1005.82 1005.50 1005.03 1004.90 1005.15 1005.74 1006.17 1006.37 1006.47 1006.59 1006.21 1005.73 1007.02 1006.16 1006.38 1006.51 1006.61 1006.95 1006.81 1006.63 1006.44 1005.42 1005.90 1006.01 1005.95 1006.29 1006.79 1007.14 1007.73 1008.36
1014.64 1012.33 1012.80 1012.73 1010.64 1009.85 1010.23 1010.02 1010.13 1009.48 1008.97 1008.46 1007.88 1007.56 1007.14 1006.45 1006.25 1005.73 1005.60 1006.64 1007.05 1007.15 1007.23 1006.94 1007.14 1006.78 1006.00 1005.90 1006.76 1007.66 1007.75 1008.43 1006.58 1007.15 1006.76 1006.21 1006.34 1007.79 1007.04 1006.71 1006.59 1006.49 1006.98 1007.75 1008.54
1014.35 1012.26 1011.95 1011.97 1011.13 1010.62 1010.12 1009.70 1009.57 1009.84 1009.48 1009.05 1008.28 1007.88 1007.37 1006.75 1006.61 1006.10 1006.05 1006.87 1007.58 1007.75 1008.43 1008.27 1007.56 1006.93 1006.19 1006.02 1007.98 1007.81 1007.94 1007.16 1006.51 1006.46 1006.02 1005.42 1005.84 1005.47 1006.80 1006.37 1006.24 1006.72 1007.29 1007.59 1008.23
1014.44 1011.74 1011.58 1010.59 1010.56 1010.71 1010.84 1010.35 1009.55 1009.31 1009.46 1008.92 1008.17 1007.72 1007.28 1006.85 1006.34 1006.34 1006.19 1006.53 1007.57 1008.37 1008.51 1008.36 1007.74 1006.98 1006.16 1005.85 1005.87 1005.78 1005.80 1005.53 1005.45 1005.65 1005.69 1005.43 1005.15 1005.04 1004.97 1004.79 1005.96 1006.55 1007.40 1007.77 1008.22
1013.56 1012.10 1011.86 1011.07 1011.16 1010.79 1011.18 1010.32 1009.80 1009.25 1009.47 1008.64 1008.38 1007.86 1007.79 1007.38 1006.97 1006.22 1006.32 1006.39 1006.66 1007.88 1007.92 1008.27 1007.70 1007.07 1006.40 1005.75 1005.93 1005.61 1005.36 1005.27 1005.13 1005.43 1005.50 1005.65 1005.40 1005.80 1006.82 1006.36 1006.56 1006.91 1007.53 1007.88 1008.21
1013.87 1013.18 1012.11 1011.03 1011.17 1010.61 1009.91 1010.19 1009.95 1010.16 1009.71 1009.06 1008.66 1008.71 1007.95 1007.86 1008.07 1007.62 1007.55 1007.49 1007.49 1007.34 1007.62 1007.89 1007.43 1007.21 1006.18 1006.67 1006.68 1005.66 1005.28 1005.53 1005.70 1005.86 1005.78 1005.56 1005.74 1005.99 1005.91 1006.23 1006.59 1007.09 1007.79 1008.15 1008.54
Wind_Speed
15 15 13 15 14 15 14 14 14 15 14 14 12 12 12 13 15 8 10 6 6 17 6 9 10 10 10 14 10 13 6 12 16 14 16 9 15 14 13 16 16 17 18 15 7
16 16 14 13 15 15 15 15 14 13 15 13 12 12 11 11 11 14 5 4 18 13 12 9 9 6 13 2 2 12 11 18 14 13 10 9 15 9 14 14 15 14 14 10 7
15 17 16 13 15 15 16 15 14 13 15 13 12 11 10 11 12 6 7 7 12 10 15 11 10 11 3 3 6 14 16 12 13 10 13 10 8 14 8 10 10 14 11 11 9
15 17 18 15 14 14 15 16 15 14 15 13 12 11 10 10 5 9 10 8 8 11 13 9 11 15 8 10 2 13 11 10 10 5 6 9 8 11 8 10 13 9 12 10 9
14 15 17 17 15 14 15 17 16 14 16 14 12 10 9 10 7 11 10 9 11 11 12 8 12 4 11 9 12 12 10 9 8 11 9 7 12 14 12 11 10 10 9 10 8
14 15 16 17 16 15 14 17 16 14 14 12 11 8 8 11 8 13 10 9 11 10 7 11 4 10 7 4 9 10 11 11 12 10 10 11 16 11 10 10 10 11 9 9 8
15 15 16 18 17 15 15 16 15 14 13 10 8 7 11 6 6 9 9 10 5 8 7 4 6 8 2 9 11 13 9 7 10 10 9 13 12 11 11 10 11 11 8 9 7
15 15 16 18 18 16 14 16 15 12 8 8 7 9 1 4 2 6 10 8 5 5 6 6 9 1 2 11 5 11 16 11 10 9 8 10 12 12 11 10 10 10 9 8 6
15 15 16 17 18 18 14 15 12 9 7 6 8 9 6 5 9 6 9 11 7 5 2 5 12 1 9 21 1 20 7 7 12 8 2 10 14 17 13 13 11 11 11 10 8
15 15 16 18 19 20 18 9 2 8 8 8 7 7 7 12 9 6 6 5 7 6 7 12 10 7 21 15 1 5 12 9 7 11 6 6 9 15 15 12 10 10 11 9 10
14 16 16 17 18 18 14 6 6 8 12 7 9 4 11 9 6 10 9 9 8 9 16 14 7 16 7 14 11 7 7 5 7 5 7 6 3 14 16 13 9 9 9 10 8
13 16 17 18 18 20 9 8 8 7 9 5 6 8 3 5 10 13 11 11 10 14 9 7 13 11 8 9 5 4 5 13 4 3 7 4 9 13 17 15 14 13 10 10 9
13 15 17 20 19 9 7 6 9 4 9 8 6 7 10 11 15 17 16 17 12 15 7 14 6 4 7 7 8 7 10 9 9 2 10 10 15 12 13 13 14 13 13 10 10
13 14 15 25 4 10 2 6 8 3 8 10 12 7 7 10 13 17 18 15 13 18 14 9 8 6 9 8 10 20 7 5 3 9 1 3 6 14 12 12 12 12 11 12 11
13 14 15 3 11 8 8 9 9 5 5 12 12 7 6 12 12 11 15 14 16 14 4 11 2 7 12 11 5 9 6 7 6 12 8 11 8 11 11 11 14 13 13 11 10
12 12 16 4 10 8 9 10 6 9 4 10 9 11 13 13 9 18 16 13 15 16 13 9 2 7 8 1 4 2 7 8 12 19 5 4 6 7 7 4 5 14 14 10 11
13 11 8 8 8 11 10 8 9 8 7 9 11 9 14 9 14 17 19 18 14 12 12 14 14 6 8 7 4 8 15 5 4 5 5 5 3 9 9 3 6 5 15 15 13
14 11 9 9 9 9 8 10 8 6 4 4 4 6 11 16 13 15 18 17 20 19 14 12 6 4 9 12 7 7 8 9 14 12 11 27 1 8 8 5 4 5 6 14 15
15 8 9 3 5 6 9 10 6 6 5 3 9 9 12 11 7 16 19 18 18 17 15 9 5 13 8 3 8 3 7 9 9 14 5 3 8 15 6 3 1 6 8 10 10
8 8 7 1 2 6 8 6 1 2 4 5 8 6 11 12 10 13 17 16 15 17 17 9 5 12 13 7 10 9 11 10 7 9 10 7 10 6 7 8 4 4 7 9 7
8 7 7 3 5 8 9 5 2 4 3 5 5 3 8 9 11 12 11 11 16 10 10 12 5 4 7 11 14 7 11 9 19 6 10 13 9 8 5 6 3 2 7 8 10
8 8 5 5 8 4 6 2 1 2 2 2 4 5 5 4 6 5 4 6 5 12 12 13 5 13 14 7 14 10 14 8 7 12 14 12 11 6 2 4 5 2 5 7 8
8 4 5 5 7 7 4 4 3 4 1 2 2 2 2 4 5 7 3 8 3 8 5 4 6 10 17 6 4 11 22 20 8 4 15 10 7 5 17 3 4 3 2 5 5
5 6 5 6 4 9 2 4 5 5 7 5 5 4 4 5 6 5 6 6 3 5 5 3 9 10 14 9 5 8 24 22 10 7 14 16 15 5 15 18 5 2 1 4 9
6 5 5 7 9 7 2 1 6 6 7 4 6 7 3 4 7 9 7 12 7 5 5 5 10 15 14 15 8 8 17 13 10 11 13 17 20 15 10 4 5 5 3 4 4
4 4 5 3 4 8 7 7 8 6 5 8 9 3 3 6 7 8 5 7 11 9 7 4 9 9 13 13 10 13 12 15 13 9 12 16 15 15 7 15 6 2 3 6 6
3 4 8 8 8 9 10 9 6 2 7 10 5 6 8 6 5 7 5 5 5 4 8 6 9 6 14 9 19 11 6 11 11 11 13 9 14 10 9 3 6 7 8 7 7
Wind_Direction
325 322 324 320 321 318 319 318 315 314 309 307 313 312 316 316 299 217 206 85 163 177 252 218 232 248 257 264 280 277 24 73 52 157 85 93 85 62 87 81 67 67 73 91 111
322 319 320 319 319 314 314 312 313 312 303 304 308 309 313 320 260 207 121 157 159 180 215 211 220 234 251 283 292 284 52 57 46 52 78 104 102 122 109 103 96 91 83 93 96
321 315 318 323 315 311 310 310 310 310 299 301 304 305 306 300 243 119 168 167 178 204 261 276 284 250 198 328 5 18 58 76 62 39 77 73 126 109 89 105 135 100 110 91 88
318 315 314 321 313 311 309 308 306 309 298 298 301 301 307 241 195 92 149 170 197 248 263 243 229 235 55 72 50 82 68 74 77 72 70 66 132 81 90 88 81 101 101 106 92
312 313 313 316 314 314 310 304 304 305 294 294 296 303 276 220 79 127 155 175 212 229 250 246 254 26 88 95 111 96 95 105 100 80 70 122 96 103 107 109 112 112 133 109 109
316 317 315 312 316 314 310 304 306 304 290 289 286 300 243 243 106 141 185 187 236 228 232 235 342 56 65 44 31 122 134 132 124 120 117 115 119 132 131 133 144 155 137 133 114
319 320 317 314 314 314 312 308 309 305 288 277 270 265 258 58 123 150 182 215 218 266 282 307 28 304 100 114 134 129 139 128 143 120 131 137 172 116 144 181 157 161 153 137 136
319 316 317 313 313 313 311 309 308 301 282 260 254 250 349 119 103 190 187 190 215 247 311 282 225 12 331 92 155 153 300 157 134 155 140 234 139 144 168 184 170 171 154 166 138
317 319 313 313 313 313 316 304 288 287 267 242 235 227 162 142 199 188 205 200 184 229 244 285 249 121 156 80 24 278 190 99 135 184 128 257 134 159 183 207 176 190 163 174 180
319 315 315 316 316 320 316 267 238 278 226 228 267 240 172 193 148 189 192 237 203 206 196 228 222 38 294 150 226 304 357 81 85 133 218 239 113 157 186 202 193 209 167 186 192
317 315 319 316 317 318 318 213 242 190 227 343 167 322 121 114 175 205 180 207 223 224 237 202 238 248 315 2 353 340 328 25 75 94 263 255 267 166 188 197 213 209 177 207 196
320 319 318 315 313 311 275 24 31 336 292 197 228 262 264 252 187 190 180 210 208 234 239 245 254 55 355 321 296 287 311 52 136 136 245 144 249 176 189 198 203 204 219 199 188
319 318 317 313 316 290 333 14 310 305 253 155 192 207 186 200 215 180 193 215 212 237 239 278 26 11 311 251 259 38 6 5 356 198 232 277 218 189 190 197 207 214 193 227 180
316 316 317 316 296 339 259 335 329 340 259 138 185 187 188 224 222 188 198 213 235 248 241 266 57 325 255 263 324 82 341 307 278 274 166 275 325 174 189 204 208 216 216 209 201
310 310 308 341 312 307 351 319 337 244 203 158 141 105 177 208 171 201 191 223 258 231 304 238 249 241 261 33 332 17 318 287 283 265 276 178 294 144 172 190 209 214 216 212 211
304 305 317 180 246 278 315 314 255 234 131 153 154 187 191 214 205 171 194 231 240 267 206 273 57 299 33 150 301 27 260 4 298 329 123 313 17 77 122 9 247 184 196 177 216
299 297 286 303 299 341 316 264 236 266 142 152 185 185 196 184 191 167 194 199 221 234 221 221 217 156 204 177 188 261 295 240 212 243 159 84 215 33 32 46 312 210 178 180 198
297 303 218 268 297 308 281 252 265 47 80 84 254 205 203 176 201 199 198 205 217 226 247 254 145 213 195 261 332 218 330 357 315 337 343 16 354 89 57 37 328 280 205 183 190
305 235 248 198 319 282 268 244 24 39 6 292 169 206 204 182 243 198 206 217 212 228 252 287 191 180 171 262 268 173 282 357 306 303 266 167 348 109 146 136 279 242 242 194 192
298 280 244 82 266 257 253 291 62 41 319 227 255 262 182 187 215 199 199 218 225 218 241 306 240 212 155 222 238 269 335 289 208 303 340 301 39 319 45 47 94 239 223 228 178
261 237 102 222 232 238 251 90 135 81 345 303 351 222 282 174 225 185 213 210 223 201 254 257 241 139 298 213 257 167 272 44 293 298 316 339 337 79 17 63 41 225 191 214 202
270 232 114 198 236 241 269 71 12 311 192 240 270 306 314 255 234 260 240 195 201 244 222 238 278 263 249 22 298 292 282 266 328 328 331 297 299 178 264 121 124 272 199 213 208
249 240 140 236 248 206 110 222 269 264 277 289 256 311 347 282 238 259 214 78 100 240 263 183 237 255 254 260 326 4 313 320 255 317 268 286 327 257 15 266 154 170 242 194 219
268 208 155 216 292 308 168 212 210 208 265 263 290 240 235 233 216 237 236 130 160 237 30 4 261 269 287 290 134 209 245 263 316 282 301 303 330 302 167 232 139 130 202 236 178
240 234 4 184 198 214 246 83 221 204 227 232 218 250 280 261 202 212 239 142 178 140 201 238 262 260 259 272 272 242 246 300 289 294 284 305 310 307 325 84 91 112 197 268 243
266 239 184 129 330 204 146 213 239 205 238 202 257 120 234 266 357 4 340 211 198 167 218 203 272 280 281 257 264 273 284 284 289 297 310 312 312 28 104 261 76 173 275 291 287
180 291 274 130 200 216 197 230 218 280 240 280 313 289 237 50 333 344 332 328 341 280 208 217 273 253 268 85 235 282 324 336 341 320 318 301 337 334 329 18 -0 33 346 350 328